x

9075014 - Harbor Beach, Mi (hrbm4) Weather Station

5:30pm - Sat 22nd Nov 2014 All times are CST. -6 hours from GMT.

  • Wind
    9mph, 11mph gusts
  • Air Temp 40°f
  • Sea Pressure 1011.8mb
  • 9075014 - Harbor Beach, Mi
  • 9075014 - Harbor Beach, Mi

More Historic Weather Station data

Upgrade to MSW Pro to gain access to the past 30 days of data for over 8000 Wavebouys and Weather Stations around the globe.

Join Pro

Comparision Forecast

View Surf forecast
   
Sat 11/22 5:30pm 9 11 mph 1011.8mb 40f
5:24pm 8 11 mph 1011.9mb 40f
5:18pm 9 13 mph 1012.2mb 40f
5:12pm 9 13 mph 1012.1mb 40f
5:06pm 9 14 mph 1012mb 40f
5:00pm 10 15 mph 1012.2mb 40f
4:54pm 9 14 mph 1012.1mb 40f
4:48pm 10 15 mph 1012mb 40f
4:42pm 14 16 mph 1012mb 40f
4:36pm 9 14 mph 1011.8mb 40f
4:30pm 9 14 mph 1011.9mb 40f
4:24pm 13 16 mph 1012mb 40f
4:18pm 10 14 mph 1012mb 40f
4:12pm 10 15 mph 1011.8mb 40f
4:06pm 11 14 mph 1011.6mb 40f
4:00pm 11 17 mph 1011.7mb 40f
3:54pm 11 14 mph 1011.6mb 40f
3:48pm 11 14 mph 1011.7mb 40f
3:42pm 10 14 mph 1011.6mb 40f
3:36pm 11 16 mph 1011.7mb 40f
3:30pm 13 16 mph 1012mb 40f
3:24pm 10 17 mph 1011.9mb 40f
3:18pm 10 14 mph 1012mb 40f
3:12pm 9 14 mph 1011.8mb 40f
3:06pm 11 17 mph 1011.9mb 40f
3:00pm 14 17 mph 1011.7mb 40f
2:54pm 13 17 mph 1011.6mb 40f
2:48pm 13 16 mph 1011.8mb 40f
2:42pm 11 17 mph 1012mb 40f
2:36pm 13 17 mph 1012.2mb 40f
2:30pm 13 16 mph 1012.1mb 40f
2:24pm 13 20 mph 1012mb 40f
2:18pm 10 15 mph 1012.1mb 40f
2:12pm 13 18 mph 1012mb 40f
2:06pm 13 16 mph 1012mb 40f
2:00pm 13 17 mph 1011.9mb 40f
1:54pm 13 17 mph 1011.9mb 40f
1:48pm 11 20 mph 1011.9mb 40f
1:42pm 11 17 mph 1011.9mb 40f
1:36pm 14 16 mph 1012mb 40f
1:30pm 13 20 mph 1012mb 40f
1:24pm 11 16 mph 1012mb 40f
1:18pm 13 16 mph 1012mb 40f
1:12pm 11 16 mph 1012mb 39f
1:06pm 13 16 mph 1012.2mb 39f
1:00pm 10 16 mph 1012.2mb 39f
12:54pm 14 16 mph 1012.3mb 39f
12:48pm 11 17 mph 1012.4mb 39f
12:42pm 11 18 mph 1012.5mb 39f
12:36pm 14 17 mph 1012.7mb 39f
12:30pm 11 22 mph 1012.7mb 39f
12:24pm 14 18 mph 1012.6mb 39f
12:18pm 16 23 mph 1012.7mb 39f
12:12pm 11 18 mph 1012.7mb 38f
12:06pm 17 22 mph 1012.8mb 39f
12:00pm 14 24 mph 1012.9mb 38f
11:54am 17 21 mph 1013mb 38f
11:48am 15 22 mph 1012.8mb 38f
11:42am 16 22 mph 1013mb 38f
11:36am 15 22 mph 1013.1mb 38f
11:30am 17 21 mph 1013.1mb 38f
11:24am 15 21 mph 1013.2mb 38f
11:18am 20 23 mph 1013.4mb 38f
11:12am 17 22 mph 1013.4mb 38f
11:06am 18 22 mph 1013.6mb 38f
11:00am 13 21 mph 1013.7mb 38f
10:54am 16 21 mph 1013.8mb 38f
10:48am 16 25 mph 1013.8mb 37f
10:42am 15 21 mph 1014mb 37f
10:36am 16 21 mph 1014mb 37f
10:30am 14 20 mph 1014.2mb 37f
10:24am 14 20 mph 1014.2mb 37f
10:18am 16 24 mph 1014.4mb 36f
10:12am 16 24 mph 1014.5mb 36f
10:06am 15 24 mph 1014.7mb 36f
10:00am 17 29 mph 1014.7mb 36f
9:54am 18 25 mph 1014.7mb 36f
9:48am 18 23 mph 1014.7mb 36f
9:42am 18 24 mph 1014.7mb 35f
9:36am 16 23 mph 1014.7mb 35f
9:30am 16 23 mph 1014.7mb 35f
9:24am 14 20 mph 1014.8mb 34f
9:18am 15 21 mph 1014.9mb 34f
9:12am 13 18 mph 1015.1mb 33f
9:06am 14 18 mph 1015.1mb 33f
9:00am 15 20 mph 1015.1mb 33f
8:54am 14 20 mph 1015.1mb 32f
8:48am 15 18 mph 1015.3mb 32f
8:42am 16 21 mph 1015.4mb 32f
8:36am 14 18 mph 1015.4mb 32f
8:30am 15 18 mph 1015.6mb 32f
8:24am 14 18 mph 1015.7mb 31f
8:18am 14 20 mph 1015.8mb 31f
8:12am 15 20 mph 1016mb 31f
8:06am 14 18 mph 1016.1mb 31f
8:00am 16 20 mph 1016.2mb 31f
7:54am 15 21 mph 1016.2mb 31f
7:48am 13 17 mph 1016.4mb 30f
7:42am 15 18 mph 1016.4mb 30f
7:36am 14 17 mph 1016.5mb 30f
7:30am 13 22 mph 1016.5mb 30f
7:24am 15 23 mph 1016.6mb 31f
7:18am 13 20 mph 1016.7mb 31f
7:12am 14 20 mph 1016.8mb 31f
7:06am 16 21 mph 1016.9mb 31f
7:00am 14 18 mph 1017mb 31f
6:54am 13 20 mph 1017mb 30f
6:48am 13 20 mph 1017mb 30f
6:42am 13 21 mph 1017.1mb 30f
6:36am 11 16 mph 1017.2mb 30f
6:30am 15 20 mph 1017.2mb 30f
6:24am 15 18 mph 1017.4mb 30f
6:18am 14 18 mph 1017.4mb 29f
6:12am 14 17 mph 1017.6mb 29f
6:06am 11 18 mph 1017.4mb 29f
6:00am 13 20 mph 1017.4mb 29f
5:54am 15 21 mph 1017.4mb 29f
5:48am 14 18 mph 1017.4mb 29f
5:42am 14 17 mph 1017.5mb 29f
5:36am 13 16 mph 1017.8mb 29f
5:30am 13 18 mph 1017.8mb 29f
5:24am 14 16 mph 1017.9mb 29f
5:18am 11 16 mph 1018mb 28f
5:12am 14 17 mph 1018.1mb 28f
5:06am 11 15 mph 1018.2mb 28f
5:00am 14 20 mph 1018.3mb 28f
4:54am 14 20 mph 1018.4mb 28f
4:48am 14 18 mph 1018.6mb 27f
4:42am 14 20 mph 1018.7mb 27f
4:36am 14 22 mph 1018.7mb 27f
4:30am 17 23 mph 1018.8mb 27f
4:24am 15 20 mph 1018.9mb 27f
4:18am 16 26 mph 1019.1mb 26f
4:12am 15 20 mph 1018.9mb 26f
4:06am 15 20 mph 1018.9mb 26f
4:00am 15 22 mph 1019mb 26f
3:54am 16 23 mph 1019.2mb 26f
3:48am 16 21 mph 1019.3mb 26f
3:42am 16 22 mph 1019.4mb 26f
3:36am 17 21 mph 1019.4mb 25f
3:30am 16 21 mph 1019.6mb 25f
3:24am 17 22 mph 1019.7mb 25f
3:18am 16 21 mph 1019.9mb 25f
3:12am 17 20 mph 1020.2mb 25f
3:06am 15 21 mph 1020.3mb 25f
2:54am 17 22 mph 1020.3mb 25f
2:48am 15 20 mph 1020.4mb 25f
2:42am 14 17 mph 1020.5mb 25f
2:36am 14 17 mph 1020.7mb 25f
2:30am 14 18 mph 1020.7mb 25f
2:24am 14 20 mph 1020.9mb 25f
2:18am 13 18 mph 1021mb 25f
2:12am 13 18 mph 1021mb 25f
2:06am 10 18 mph 1021.3mb 25f
2:00am 11 15 mph 1021.4mb 25f
1:54am 11 17 mph 1021.5mb 26f
1:48am 15 22 mph 1021.6mb 25f
1:42am 13 20 mph 1021.7mb 26f
1:36am 11 20 mph 1021.8mb 25f
1:30am 13 21 mph 1021.9mb 25f
1:24am 14 22 mph 1021.9mb 25f
1:18am 13 17 mph 1021.9mb 25f
1:12am 14 18 mph 1022mb 25f
1:06am 11 18 mph 1022.1mb 25f
1:00am 9 15 mph 1022.2mb 25f
12:54am 13 17 mph 1022.3mb 25f
12:48am 13 17 mph 1022.4mb 25f
12:42am 14 18 mph 1022.5mb 25f
12:36am 16 20 mph 1022.6mb 25f
12:30am 17 22 mph 1022.8mb 25f
12:24am 14 18 mph 1023mb 25f
12:18am 14 18 mph 1023.3mb 25f
12:12am 14 20 mph 1023.4mb 25f
12:06am 15 21 mph 1023.4mb 25f
12:00am 14 21 mph 1023.6mb 25f
Fri 11/21 11:54pm 16 23 mph 1023.7mb 24f
11:48pm 14 23 mph 1023.8mb 24f
11:42pm 15 24 mph 1023.8mb 25f
11:36pm 20 25 mph 1023.9mb 24f
11:30pm 17 24 mph 1024mb 24f
11:24pm 15 23 mph 1024.1mb 25f
11:18pm 16 26 mph 1024.1mb 24f
11:12pm 15 22 mph 1024.1mb 24f
11:06pm 15 20 mph 1024.2mb 24f
11:00pm 13 20 mph 1024.2mb 24f
10:54pm 15 21 mph 1024.2mb 24f
10:48pm 14 18 mph 1024.3mb 24f
10:42pm 13 18 mph 1024.3mb 24f
10:36pm 13 15 mph 1024.3mb 24f
10:30pm  -  mph 1024.4mb 24f
10:24pm 14 18 mph 1024.4mb 24f
10:18pm 11 17 mph 1024.7mb 24f
10:12pm 14 18 mph 1024.7mb 24f
10:06pm 14 22 mph 1024.7mb 24f
10:00pm 13 21 mph 1024.8mb 24f
9:54pm 13 17 mph 1024.9mb 24f
9:48pm 15 20 mph 1025mb 24f
9:42pm 14 22 mph 1025.2mb 24f
9:36pm 15 20 mph 1025.3mb 24f
9:30pm 16 20 mph 1025.4mb 24f
9:24pm 14 21 mph 1025.5mb 24f
9:18pm 14 18 mph 1025.6mb 24f
9:12pm 14 20 mph 1025.7mb 24f
9:06pm 14 22 mph 1025.7mb 24f
9:00pm 15 23 mph 1025.8mb 24f
8:54pm 14 21 mph 1025.9mb 24f
8:48pm 15 20 mph 1026mb -
8:42pm 11 18 mph 1026.1mb 24f
8:36pm 11 18 mph 1026.2mb 23f
8:30pm 11 18 mph 1026.3mb 23f
8:24pm 14 18 mph 1026.3mb 23f
8:18pm 11 16 mph 1026.4mb 23f
8:12pm 13 16 mph 1026.4mb 23f
8:06pm 11 16 mph 1026.4mb 23f
8:00pm 11 16 mph 1026.6mb 23f
7:54pm 10 16 mph 1026.5mb 22f
7:48pm 11 14 mph 1026.6mb 22f
7:42pm 10 14 mph 1026.6mb 22f
7:36pm 9 11 mph 1026.7mb 22f
7:30pm 8 13 mph 1026.9mb 22f
7:24pm 10 13 mph 1027mb 21f
7:18pm 10 13 mph 1027mb 21f
7:12pm 11 14 mph 1027.2mb 22f
7:06pm 10 13 mph 1027.3mb 22f
7:00pm 11 15 mph 1027.4mb 22f
6:54pm 10 14 mph 1027.4mb 22f
6:48pm 9 15 mph 1027.5mb 22f
6:42pm 11 14 mph 1027.5mb 22f
6:36pm 9 14 mph 1027.6mb 22f
6:30pm 8 13 mph 1027.7mb 22f
6:24pm 9 13 mph 1027.6mb 22f
6:18pm 9 11 mph 1027.7mb 22f
6:12pm 9 10 mph 1027.7mb 22f
6:06pm 10 14 mph 1027.8mb 22f
6:00pm 9 11 mph 1027.8mb 22f
5:54pm 7 10 mph 1028mb 22f
5:48pm 8 11 mph 1028.2mb 23f
5:42pm 9 13 mph 1028.1mb 23f
5:36pm 9 14 mph 1028.1mb 23f
5:30pm 9 13 mph 1028.2mb 23f
5:24pm 9 11 mph 1028.2mb 23f
5:18pm 9 14 mph 1028.2mb 23f
5:12pm 10 15 mph 1028.3mb 23f
5:06pm 9 13 mph 1028.4mb 23f
5:00pm 9 14 mph 1028.4mb 23f
4:54pm 9 11 mph 1028.5mb 23f
4:48pm 9 11 mph 1028.6mb 23f
4:42pm 9 10 mph 1028.5mb 23f
4:36pm 8 11 mph 1028.5mb 23f
4:30pm 8 10 mph 1028.6mb 24f
4:18pm 7 8 mph 1028.5mb 24f
4:12pm 7 10 mph 1028.5mb 24f
4:06pm 9 10 mph 1028.5mb 24f
4:00pm 8 10 mph 1028.5mb 24f
3:54pm 8 10 mph 1028.5mb 24f
3:48pm 10 13 mph 1028.5mb 24f
3:42pm 10 14 mph 1028.4mb 25f
3:36pm 9 14 mph 1028.4mb 24f
3:30pm 9 16 mph 1028.3mb 25f
3:24pm 11 15 mph 1028.4mb 25f
3:18pm 14 16 mph 1028.5mb 24f
3:12pm 11 15 mph 1028.4mb 25f
3:06pm 11 15 mph 1028.5mb 25f
3:00pm 11 16 mph 1028.5mb 25f
2:54pm 13 16 mph 1028.5mb 25f
2:48pm 14 17 mph 1028.5mb 25f
2:42pm 11 16 mph 1028.5mb 25f
2:36pm 13 15 mph 1028.5mb 25f
2:30pm 13 17 mph 1028.4mb 25f
2:24pm 9 13 mph 1028.3mb 25f
2:18pm 11 15 mph 1028.3mb 25f
2:12pm 10 14 mph 1028.3mb 25f
2:06pm 9 15 mph 1028.3mb 25f
2:00pm 13 15 mph 1028.4mb 24f
1:54pm 10 15 mph 1028.5mb 25f
1:48pm 13 15 mph 1028.6mb 24f
1:42pm 10 16 mph 1028.6mb 24f
1:36pm 11 17 mph 1028.6mb 24f
1:30pm 10 16 mph 1028.7mb 24f
1:24pm 11 18 mph 1028.9mb 24f
1:18pm 13 17 mph 1028.8mb 24f
1:12pm 13 18 mph 1028.8mb 24f
1:06pm 13 14 mph 1028.8mb 24f
1:00pm 10 15 mph 1028.8mb 24f
12:54pm 11 14 mph 1028.9mb 24f
12:48pm 8 16 mph 1028.9mb 24f
12:42pm 14 18 mph 1028.9mb 24f
12:36pm 14 18 mph 1028.9mb 23f
12:30pm 14 24 mph 1028.9mb 24f
12:24pm 11 17 mph 1028.9mb 23f
12:18pm 11 16 mph 1029.1mb 23f
12:12pm 14 16 mph 1029.2mb 23f
12:06pm 10 17 mph 1029.2mb 24f
12:00pm 15 17 mph 1029.1mb 23f
11:54am 7 14 mph 1029.1mb 23f
11:48am 11 15 mph 1029mb 22f
11:42am 10 14 mph 1029.1mb 23f
11:36am 9 15 mph 1029.1mb 22f
11:30am 11 16 mph 1029mb 23f
11:24am 9 13 mph 1028.9mb 22f
11:18am 6 11 mph 1028.9mb 22f
11:12am 8 10 mph 1029mb 22f
11:06am 7 14 mph 1028.9mb 22f
11:00am 10 16 mph 1029.1mb 22f
10:54am 7 13 mph 1029mb 23f
10:48am 9 14 mph 1029.1mb 22f
10:42am 13 20 mph 1029.2mb 22f
10:36am 11 20 mph 1029.2mb 22f
10:30am 13 17 mph 1029.1mb 22f
10:24am 11 17 mph 1029.2mb 22f
10:18am 10 14 mph 1029.2mb 22f
10:12am 15 21 mph 1029.1mb 22f
10:06am 9 15 mph 1029.1mb 22f
10:00am 11 15 mph 1029.1mb 21f
9:54am 7 18 mph 1029.1mb 22f
9:48am 13 18 mph 1029.1mb 21f
9:42am 11 18 mph 1029mb 21f
9:36am 10 15 mph 1028.8mb 22f
9:30am 11 18 mph 1028.8mb 22f
9:24am 11 17 mph 1028.7mb 20f
9:18am 14 20 mph 1028.6mb 20f
9:12am 10 17 mph 1028.5mb 21f
9:06am 9 14 mph 1028.5mb 20f
9:00am 9 17 mph 1028.5mb 20f
8:54am 13 16 mph 1028.5mb 19f
8:48am 8 11 mph 1028.4mb 19f
8:42am 11 17 mph 1028.4mb 18f
8:36am 11 15 mph 1028.3mb 19f
8:30am 11 15 mph 1028.2mb 19f
8:24am 9 16 mph 1028.2mb 19f
8:18am 9 14 mph 1028.2mb 19f
8:12am 10 14 mph 1028.2mb 19f
8:06am 8 13 mph 1028.1mb 19f
8:00am 9 14 mph 1028mb 18f
7:54am 7 10 mph 1028mb 18f
7:48am 8 11 mph 1027.9mb 18f
7:42am 7 10 mph 1027.8mb 18f
7:36am 8 10 mph 1027.7mb 17f
7:30am 8 14 mph 1027.6mb 17f
7:24am 9 14 mph 1027.5mb 17f
7:18am 9 15 mph 1027.4mb 17f
7:12am 10 14 mph 1027.3mb 17f
7:06am 10 13 mph 1027.2mb 17f
7:00am 9 15 mph 1027.1mb 17f
6:54am 10 16 mph 1027mb 16f
6:48am 9 15 mph 1026.9mb 16f
6:42am 11 15 mph 1026.8mb 16f
6:36am 9 14 mph 1026.7mb 16f
6:30am 10 14 mph 1026.6mb 16f
6:24am 10 14 mph 1026.5mb 16f
6:18am 9 16 mph 1026.4mb 16f
6:12am 9 14 mph 1026.4mb 16f
6:06am 9 11 mph 1026.2mb 16f
6:00am 8 14 mph 1026.1mb 16f
5:54am 9 13 mph 1025.9mb 16f
5:48am 8 13 mph 1025.9mb 16f
5:42am 9 11 mph 1025.8mb 16f
5:36am 8 10 mph 1025.7mb 17f
5:30am 8 11 mph 1025.7mb 17f
5:24am 8 10 mph 1025.6mb 17f
5:18am 8 11 mph 1025.6mb 17f
5:12am 8 13 mph 1025.4mb 17f
5:06am 9 14 mph 1025.3mb 17f
5:00am 9 15 mph 1025.3mb 17f
4:54am 10 14 mph 1025.2mb 17f
4:48am 9 14 mph 1025.1mb 17f
4:42am 10 13 mph 1024.9mb 17f
4:36am 11 15 mph 1024.8mb 17f
4:30am 10 14 mph 1024.7mb 17f
4:24am 10 15 mph 1024.5mb 17f
4:18am 10 14 mph 1024.4mb 17f
4:12am 9 11 mph 1024.2mb 17f
4:06am 9 13 mph 1024.2mb 17f
4:00am 8 13 mph 1024.1mb 18f
3:54am 9 13 mph 1023.9mb 18f
3:48am 9 14 mph 1023.8mb 18f
3:42am 9 14 mph 1023.7mb 18f
3:36am 9 13 mph 1023.6mb 18f
3:30am 10 15 mph 1023.5mb 19f
3:24am 8 11 mph 1023.3mb 19f
3:18am 6 11 mph 1023.2mb 19f
3:12am 8 10 mph 1023.1mb 19f
3:06am 8 13 mph 1023mb 19f
3:00am 6 13 mph 1022.8mb 18f
2:54am 8 13 mph 1022.7mb 18f
2:48am 10 15 mph 1022.6mb 18f
2:42am 10 16 mph 1022.6mb 18f
2:36am 9 14 mph 1022.5mb 18f
2:30am 8 14 mph 1022.4mb 18f
2:24am 10 15 mph 1022.3mb 18f
2:18am 10 14 mph 1022.2mb 18f
2:12am 9 14 mph 1022.1mb 18f
2:06am 9 13 mph 1022mb 18f
2:00am 10 15 mph 1021.8mb 18f
1:54am 8 14 mph 1021.8mb 18f
1:48am 9 13 mph 1021.7mb 18f
1:42am 9 16 mph 1021.5mb 18f
1:36am 9 14 mph 1021.4mb 18f
1:24am 10 15 mph 1021.1mb 18f
1:18am 11 16 mph 1020.9mb 18f
1:12am 11 16 mph 1020.8mb 18f
1:06am 10 17 mph 1020.7mb 18f
1:00am 10 16 mph 1020.6mb 18f
12:54am 9 14 mph 1020.5mb 18f
12:48am 13 16 mph 1020.4mb 18f
12:42am 10 16 mph 1020.3mb 18f
12:36am 13 17 mph 1020.2mb 18f
12:30am 11 16 mph 1020.1mb 18f
12:24am 13 17 mph 1020mb 18f
12:18am 10 18 mph 1019.9mb 18f
12:12am 14 18 mph 1019.8mb 18f
12:06am 10 18 mph 1019.6mb 18f
12:00am 10 17 mph 1019.5mb 18f
Thu 11/20 11:54pm 14 20 mph 1019.5mb 19f
11:48pm 13 18 mph 1019.4mb 18f
11:42pm 14 21 mph 1019.4mb 18f
11:36pm 11 17 mph 1019.2mb 19f
11:30pm 10 16 mph 1019.1mb 19f
11:24pm 13 18 mph 1019mb 18f
11:18pm 13 17 mph 1018.9mb 19f
11:12pm 11 17 mph 1018.7mb 19f
11:06pm 13 18 mph 1018.7mb 19f
11:00pm 11 17 mph 1018.6mb 19f
10:54pm 10 15 mph 1018.5mb 19f
10:48pm 9 16 mph 1018.3mb 19f
10:42pm 11 18 mph 1018.2mb 19f
10:36pm 10 17 mph 1018.1mb 19f
10:30pm 10 15 mph 1018mb 19f
10:24pm 11 17 mph 1017.9mb 19f
10:18pm 11 17 mph 1017.8mb 19f
10:12pm 13 18 mph 1017.8mb 19f
10:06pm 13 21 mph 1017.7mb 19f
10:00pm 11 18 mph 1017.6mb 19f
9:54pm 11 18 mph 1017.6mb 19f
9:48pm 13 17 mph 1017.5mb 19f
9:42pm 13 17 mph 1017.4mb 19f
9:36pm 14 20 mph 1017.4mb 19f
9:30pm 13 21 mph 1017.3mb 19f
9:24pm 10 18 mph 1017.3mb 19f
9:18pm 13 17 mph 1017.2mb 19f
9:12pm 14 21 mph 1017.2mb 19f
9:06pm 10 16 mph 1017.1mb 19f
9:00pm 13 18 mph 1017mb 19f
8:54pm 11 17 mph 1017mb 19f
8:48pm 13 21 mph 1016.9mb 19f
8:42pm 11 16 mph 1016.9mb 19f
8:36pm 11 17 mph 1016.9mb 19f
8:30pm 11 18 mph 1016.8mb 19f
8:24pm 15 23 mph 1016.7mb 19f
8:18pm 13 20 mph 1016.6mb 19f
8:12pm 14 23 mph 1016.5mb 19f
8:06pm 14 18 mph 1016.4mb 19f
8:00pm 11 17 mph 1016.4mb 19f
7:54pm 13 17 mph 1016.3mb 19f
7:48pm 11 21 mph 1016.2mb 19f
7:42pm 13 21 mph 1016.2mb 19f
7:36pm 11 18 mph 1016.1mb 19f
7:30pm 13 20 mph 1016mb 19f
7:24pm 11 20 mph 1015.9mb 19f
7:18pm 11 20 mph 1015.9mb 20f
7:12pm 14 16 mph 1015.9mb 20f
7:06pm 11 15 mph 1015.9mb 20f
7:00pm 11 16 mph 1015.9mb 20f
6:54pm 9 15 mph 1015.8mb 20f
6:48pm 8 15 mph 1015.7mb 20f
6:42pm 10 15 mph 1015.6mb 20f
6:36pm 11 16 mph 1015.5mb 20f
6:30pm 13 18 mph 1015.4mb 20f
6:24pm 13 20 mph 1015.3mb 20f
6:18pm 14 18 mph 1015.2mb 20f
6:12pm 14 20 mph 1015.1mb 21f
6:06pm 11 18 mph 1015mb 21f
6:00pm 13 17 mph 1014.9mb 21f
5:48pm 10 17 mph 1014.7mb 21f
5:42pm 11 15 mph 1014.6mb 21f
5:36pm 11 15 mph 1014.5mb 21f
5:30pm 11 17 mph 1014.4mb 21f
5:24pm 11 17 mph 1014.3mb 21f
5:18pm 8 14 mph 1014.2mb 21f
5:12pm 11 20 mph 1014.1mb 21f
5:06pm 15 22 mph 1014mb 21f
5:00pm 15 23 mph 1013.9mb 21f
4:54pm 14 20 mph 1013.8mb 21f
4:48pm 15 20 mph 1013.6mb 20f
4:42pm 16 25 mph 1013.4mb 21f
4:36pm 11 18 mph 1013.3mb 21f
4:30pm 13 20 mph 1013.2mb 21f
4:24pm 16 23 mph 1013.3mb 20f
4:18pm 14 18 mph 1013.1mb 22f
4:12pm 14 20 mph 1012.9mb 22f
4:06pm 10 18 mph 1012.8mb 22f
4:00pm 13 17 mph 1012.8mb 22f
3:54pm 11 15 mph 1012.6mb 22f
3:48pm 11 17 mph 1012.5mb 21f
3:42pm 10 25 mph 1012.5mb 21f
3:36pm 14 17 mph 1012.5mb 22f
3:30pm 11 22 mph 1012.3mb 22f
3:24pm 13 21 mph 1012.2mb 23f
3:18pm 14 20 mph 1012.1mb 23f
3:12pm 14 18 mph 1011.9mb 23f
3:06pm 11 18 mph 1011.8mb 23f
3:00pm 14 21 mph 1011.7mb 23f
2:54pm 14 21 mph 1011.6mb 23f
2:48pm 13 17 mph 1011.5mb 23f
2:42pm 14 29 mph 1011.4mb 24f
2:36pm 17 23 mph 1011.4mb 23f
2:30pm 9 17 mph 1011.2mb 23f
2:24pm 11 18 mph 1011.1mb 22f
2:18pm 13 23 mph 1011.1mb 22f
2:12pm 18 29 mph 1011.2mb 22f
2:06pm 15 22 mph 1010.9mb 23f
2:00pm 13 22 mph 1010.7mb 23f
1:54pm 13 22 mph 1010.6mb 23f
1:48pm 17 26 mph 1010.6mb 23f
1:42pm 15 25 mph 1010.5mb 24f
1:36pm 14 28 mph 1010.4mb 23f
1:30pm 20 32 mph 1010.4mb 24f
1:24pm 13 22 mph 1010.2mb 24f
1:18pm 14 25 mph 1010.3mb 23f
1:12pm 13 17 mph 1010.3mb 23f
1:06pm 16 25 mph 1010.2mb 23f
1:00pm 16 22 mph 1010.3mb 22f
12:54pm 14 22 mph 1010.2mb 23f
12:48pm 16 30 mph 1010.3mb 23f
12:42pm 20 26 mph 1010.4mb 22f
12:36pm 13 22 mph 1010.1mb 23f
12:30pm 17 24 mph 1010.1mb 23f
12:24pm 20 34 mph 1010.2mb 22f
12:18pm 15 25 mph 1010mb 23f
12:12pm 21 28 mph 1010mb 23f
12:06pm 13 24 mph 1009.9mb 24f
12:00pm 15 33 mph 1010mb 24f
11:54am 24 32 mph 1009.9mb 24f
11:48am 17 30 mph 1009.7mb 24f
11:42am 22 29 mph 1009.7mb 24f
11:36am 21 30 mph 1009.7mb 24f
11:30am 18 28 mph 1009.6mb 24f
11:24am 18 30 mph 1009.7mb 24f
11:18am 16 26 mph 1009.7mb 24f
11:12am 14 25 mph 1009.8mb 24f
11:06am 18 26 mph 1009.7mb 24f
11:00am 17 28 mph 1009.8mb 24f
10:54am 17 28 mph 1009.7mb 24f
10:48am 18 24 mph 1009.7mb 24f
10:42am 17 28 mph 1009.8mb 24f
10:36am 21 33 mph 1009.8mb 23f
10:30am 17 32 mph 1009.8mb 24f
10:24am 18 28 mph 1009.8mb 23f
10:18am 18 28 mph 1009.8mb 23f
10:06am 18 26 mph 1009.8mb 23f
10:00am 13 26 mph 1009.8mb 24f
9:54am 16 23 mph 1009.7mb 23f
9:42am 16 25 mph 1009.8mb 23f
9:36am 20 28 mph 1009.8mb 23f
9:30am 21 26 mph 1009.8mb 23f
9:24am 18 24 mph 1009.6mb 23f
9:18am 21 25 mph 1009.6mb 22f
9:12am 16 29 mph 1009.6mb 23f
9:06am 17 26 mph 1009.7mb 22f
9:00am 20 28 mph 1009.6mb 22f
8:54am 17 26 mph 1009.6mb 22f
8:48am 20 24 mph 1009.6mb 22f
8:42am 15 23 mph 1009.6mb 22f
8:36am 17 24 mph 1009.6mb 22f
8:30am 20 28 mph 1009.6mb 21f
8:24am 17 23 mph 1009.6mb 21f
8:18am 18 24 mph 1009.6mb 21f
8:12am 17 28 mph 1009.6mb 21f
8:06am 16 25 mph 1009.6mb 21f
8:00am 14 24 mph 1009.6mb 21f
7:54am 17 25 mph 1009.6mb 21f
7:48am 17 23 mph 1009.4mb 21f
7:42am 18 23 mph 1009.4mb 21f
7:36am 14 22 mph 1009.4mb 21f
7:30am 14 23 mph 1009.3mb 20f
7:24am 16 22 mph 1009.2mb 20f
7:18am 17 25 mph 1009.2mb 20f
7:12am 17 23 mph 1009.2mb 20f
7:06am 14 26 mph 1009mb 20f
7:00am 16 22 mph 1009mb 20f
6:54am 16 22 mph 1009mb 20f
6:48am 15 23 mph 1008.9mb 20f
6:42am 17 25 mph 1008.9mb 20f
6:36am 15 21 mph 1008.8mb 20f
6:30am 15 21 mph 1008.8mb 20f
6:24am 15 22 mph 1008.7mb 20f
6:18am 16 22 mph 1008.8mb 20f
6:12am 15 20 mph 1008.7mb 20f
6:06am 16 22 mph 1008.6mb 20f
6:00am 15 22 mph 1008.6mb 20f
5:54am 14 18 mph 1008.5mb 20f
5:48am 14 20 mph 1008.5mb 20f
5:42am 14 21 mph 1008.4mb 20f
5:36am 16 21 mph 1008.4mb 20f
5:30am 18 22 mph 1008.4mb 20f
5:24am 16 21 mph 1008.3mb 20f
5:18am 16 23 mph 1008.3mb 20f
5:12am 20 26 mph 1008.2mb 21f
5:06am 15 22 mph 1008.1mb 21f
5:00am 18 25 mph 1008.1mb 21f
4:54am 18 25 mph 1008.1mb 20f
4:48am 15 25 mph 1008.1mb 20f
4:42am 16 21 mph 1008.1mb 20f
4:36am 16 23 mph 1008.1mb 20f
4:30am 16 23 mph 1008mb 20f
4:24am 17 22 mph 1008.1mb 20f
4:18am 17 24 mph 1008.1mb 20f
4:12am 17 25 mph 1008.1mb 20f
4:06am 17 29 mph 1008.1mb 20f
4:00am 18 28 mph 1008mb 20f
3:54am 15 22 mph 1008mb 20f
3:48am 17 23 mph 1007.9mb 20f
3:42am 17 23 mph 1007.9mb 20f
3:36am 16 25 mph 1008mb 20f
3:30am 17 24 mph 1007.8mb 20f
3:24am 16 23 mph 1007.8mb 20f
3:18am 16 23 mph 1007.7mb 20f
3:12am 17 23 mph 1007.8mb 20f
3:06am 16 24 mph 1007.7mb 20f
3:00am 16 28 mph 1007.7mb 20f
2:54am 18 23 mph 1007.7mb 20f
2:48am 15 28 mph 1007.7mb 20f
2:42am 17 23 mph 1007.7mb 20f
2:36am 17 25 mph 1007.6mb 20f
2:30am 16 22 mph 1007.7mb 20f
2:24am 17 23 mph 1007.7mb 20f
2:18am 18 25 mph 1007.6mb 20f
2:12am 16 22 mph 1007.6mb 21f
2:06am 20 25 mph 1007.6mb 21f
2:00am 18 23 mph 1007.5mb 21f
1:54am 17 23 mph 1007.5mb 21f
1:48am 15 21 mph 1007.4mb 21f
1:42am 16 24 mph 1007.4mb 21f
1:36am 15 23 mph 1007.4mb 21f
1:30am 14 22 mph 1007.3mb 21f
1:24am 18 23 mph 1007.3mb 22f
1:18am 15 24 mph 1007.4mb 22f
1:12am 18 25 mph 1007.2mb 22f
1:06am 20 26 mph 1007.1mb 22f
1:00am 18 28 mph 1006.9mb 22f
12:54am 18 26 mph 1006.9mb 22f
12:48am 18 28 mph 1006.8mb 22f
12:42am 20 28 mph 1006.8mb 22f
12:36am 18 28 mph 1006.9mb 22f
12:30am 17 29 mph 1006.8mb 22f
12:24am 20 25 mph 1006.8mb 22f
12:18am 20 24 mph 1006.9mb 22f
12:12am 16 23 mph 1006.8mb 22f
12:06am 14 22 mph 1006.8mb 22f
12:00am 17 23 mph 1006.7mb 22f
Wed 11/19 11:54pm 18 22 mph 1006.8mb 22f
11:48pm 18 23 mph 1006.7mb 22f
11:42pm 18 24 mph 1006.7mb 23f
11:36pm 18 24 mph 1006.7mb 23f
11:30pm 15 25 mph 1006.7mb 23f
11:24pm 17 23 mph 1006.7mb 23f
11:18pm 17 22 mph 1006.6mb 23f
11:12pm 15 22 mph 1006.5mb 23f
11:06pm 15 21 mph 1006.6mb 23f
11:00pm 15 28 mph 1006.5mb 24f
10:54pm 15 25 mph 1006.5mb 24f
10:48pm 18 29 mph 1006.5mb 24f
10:42pm 14 20 mph 1006.5mb 24f
10:36pm 16 22 mph 1006.4mb 24f
10:30pm 17 24 mph 1006.4mb 24f
10:24pm 15 21 mph 1006.3mb 24f
10:18pm 16 24 mph 1006.2mb 24f
10:12pm 16 26 mph 1006.2mb 24f
10:06pm 16 22 mph 1006.1mb 24f
10:00pm 15 24 mph 1006.1mb 24f
9:54pm 16 23 mph 1005.9mb 24f
9:48pm 16 28 mph 1006mb 24f
9:42pm 16 25 mph 1006mb 24f
9:36pm 15 21 mph 1005.9mb 24f
9:30pm 14 22 mph 1005.7mb 24f
9:24pm 17 26 mph 1005.5mb 24f
9:18pm 17 25 mph 1005.7mb 24f
9:12pm 18 23 mph 1005.7mb 24f
9:06pm 14 21 mph 1005.7mb 24f
9:00pm 18 24 mph 1005.8mb 24f
8:54pm 18 26 mph 1005.7mb 24f
8:48pm 17 26 mph 1005.7mb 25f
8:42pm 18 28 mph 1005.7mb 25f
8:36pm 18 23 mph 1005.6mb 24f
8:30pm 20 25 mph 1005.5mb 24f
8:24pm 16 24 mph 1005.5mb 24f
8:18pm 16 25 mph 1005.5mb 24f
8:12pm 18 26 mph 1005.5mb 24f
8:06pm 18 24 mph 1005.4mb 24f
8:00pm 20 29 mph 1005.4mb 23f
7:54pm 21 29 mph 1005.4mb 24f
7:48pm 17 26 mph 1005.3mb 25f
7:42pm 18 24 mph 1005.1mb 25f
7:36pm 17 25 mph 1005.1mb 25f
7:30pm 20 29 mph 1005mb 25f
7:24pm 17 25 mph 1004.9mb 25f
7:18pm 16 29 mph 1004.9mb 26f
7:12pm 18 24 mph 1004.9mb 26f
7:06pm 15 22 mph 1004.8mb 26f
7:00pm 16 22 mph 1004.8mb 25f
6:54pm 16 23 mph 1004.7mb 25f
6:48pm 20 29 mph 1004.6mb 26f
6:42pm 21 26 mph 1004.5mb 26f
6:36pm 15 22 mph 1004.5mb 25f
6:30pm 15 23 mph 1004.4mb 25f
6:24pm 16 23 mph 1004.3mb 25f
6:18pm 15 22 mph 1004.3mb 25f
6:12pm 16 21 mph 1004.3mb 25f
6:06pm 14 17 mph 1004.3mb 24f
6:00pm 13 16 mph 1004.2mb 24f
5:54pm 13 17 mph 1004.2mb 24f
5:48pm 14 17 mph 1004.1mb 24f
5:42pm 14 20 mph 1004mb 24f
5:36pm 14 18 mph 1004mb 24f
5:30pm 14 20 mph 1004mb 24f
5:24pm 14 20 mph 1004mb 24f
5:18pm 13 20 mph 1004mb 24f
5:12pm 14 17 mph 1004.1mb 24f
5:06pm 11 15 mph 1004mb 23f
4:54pm 14 17 mph 1004mb 23f
4:48pm 15 21 mph 1004mb 23f
4:42pm 11 17 mph 1004mb 23f
4:36pm 13 21 mph 1004.1mb 23f
4:30pm 13 16 mph 1004.1mb 23f
4:24pm 14 17 mph 1004.2mb 23f
4:18pm 14 17 mph 1004.2mb 23f
4:12pm 14 17 mph 1004.2mb 23f
4:06pm 15 21 mph 1004.3mb 23f
4:00pm 14 21 mph 1004.2mb 23f
3:54pm 11 21 mph 1004.2mb 24f
3:48pm 13 17 mph 1004.3mb 24f
3:42pm 15 22 mph 1004.3mb 24f
3:36pm 16 20 mph 1004.4mb 24f
3:30pm 17 22 mph 1004.4mb 24f
3:24pm 14 21 mph 1004.4mb 24f
3:18pm 20 23 mph 1004.5mb 24f
3:06pm 18 23 mph 1004.6mb 24f
2:54pm 14 22 mph 1004.7mb 25f
2:48pm 17 23 mph 1004.7mb 25f
2:42pm 17 26 mph 1004.8mb 25f
2:36pm 21 26 mph 1004.9mb 25f
2:30pm 22 26 mph 1005mb 25f
2:24pm 16 20 mph 1004.9mb 25f
2:18pm 16 21 mph 1005mb 25f
2:06pm 15 22 mph 1005.2mb 25f
2:00pm 20 26 mph 1005.3mb 25f
1:54pm 16 22 mph 1005.2mb 25f
1:48pm 18 25 mph 1005.4mb 25f
1:42pm 18 24 mph 1005.6mb 25f
1:36pm 18 28 mph 1005.7mb 25f
1:30pm 15 26 mph 1005.8mb 25f
1:24pm 17 23 mph 1005.9mb 25f
1:18pm 16 22 mph 1006.1mb 24f
1:12pm 18 22 mph 1006.1mb 25f
1:06pm 15 23 mph 1006.3mb 24f
1:00pm 22 28 mph 1006.6mb 24f
12:54pm 22 28 mph 1006.8mb 25f
12:48pm 17 26 mph 1006.8mb 25f
12:42pm 21 25 mph 1006.9mb 25f
12:36pm 17 25 mph 1007.1mb 25f
12:30pm 20 28 mph 1007.2mb 24f
12:24pm 18 25 mph 1007.4mb 24f
12:18pm 15 21 mph 1007.6mb 24f
12:12pm 16 21 mph 1007.8mb 24f
12:06pm 20 23 mph 1008mb 23f
12:00pm 13 22 mph 1008.1mb 23f
11:54am 15 23 mph 1008.4mb 23f
11:48am 16 22 mph 1008.7mb 23f
11:42am 15 21 mph 1008.9mb 23f
11:36am 15 24 mph 1009.1mb 23f
11:30am 15 23 mph 1009.3mb 23f
11:24am 18 22 mph 1009.5mb 23f
11:18am 17 24 mph 1009.7mb 22f
11:12am 14 23 mph 1009.9mb 23f
11:06am 15 23 mph 1010.3mb 22f
11:00am 13 24 mph 1010.5mb 23f
10:54am 15 24 mph 1010.7mb 22f
10:42am 16 22 mph 1011.3mb 22f
10:36am 15 24 mph 1011.5mb 22f
10:30am 16 21 mph 1011.7mb 22f
10:24am 17 24 mph 1011.9mb 22f
10:18am 16 22 mph 1012.1mb 21f
10:12am 14 21 mph 1012.3mb 21f
10:06am 16 22 mph 1012.4mb 21f
9:54am 16 22 mph 1012.5mb 21f
9:42am 14 21 mph 1012.6mb 20f
9:36am 16 24 mph 1012.9mb 20f
9:30am 14 18 mph 1013mb 20f
9:24am 16 21 mph 1013.1mb 19f
9:18am 14 22 mph 1013.2mb 19f
9:06am 17 23 mph 1013.6mb 19f
8:54am 18 24 mph 1013.8mb 19f
8:48am 17 22 mph 1013.8mb 19f
8:42am 16 24 mph 1013.9mb 19f
8:36am 14 22 mph 1014mb 19f
8:30am 16 24 mph 1014.1mb 19f
8:24am 17 23 mph 1014.1mb 19f
8:18am 15 21 mph 1014.1mb 19f
8:12am 15 20 mph 1014.1mb 19f
8:06am 11 23 mph 1014.2mb 19f
8:00am 16 22 mph 1014.3mb 19f
7:54am 14 22 mph 1014.4mb 19f
7:48am 18 23 mph 1014.5mb 19f
7:42am 16 21 mph 1014.5mb 19f
7:36am 18 22 mph 1014.5mb 19f
7:30am 13 16 mph 1014.6mb 19f
7:24am 15 22 mph 1014.7mb 19f
7:18am 17 22 mph 1014.8mb 18f
7:12am 16 21 mph 1014.7mb 18f
7:06am 15 21 mph 1014.7mb 18f
7:00am 15 22 mph 1014.8mb 18f
6:54am 16 21 mph 1014.8mb 18f
6:48am 13 18 mph 1014.8mb 18f
6:42am 16 22 mph 1014.9mb 18f
6:36am 14 20 mph 1014.9mb 18f
6:30am 16 22 mph 1014.9mb 18f
6:24am 14 22 mph 1014.9mb 18f
6:18am 14 20 mph 1015mb 18f
6:06am 15 18 mph 1014.9mb 17f
6:00am 15 20 mph 1014.9mb 17f
5:54am 15 20 mph 1014.9mb 17f
5:48am 13 21 mph 1015mb 17f
5:42am 16 21 mph 1015.1mb 17f
5:36am 15 20 mph 1015.1mb 17f
5:30am 16 22 mph 1015.2mb 17f
5:24am 15 23 mph 1015.1mb 17f
5:18am 15 24 mph 1015.2mb 17f
5:12am 14 20 mph 1015.1mb 17f
5:06am 11 20 mph 1015mb 17f
5:00am 14 18 mph 1015.1mb 17f
4:54am 15 21 mph 1015.1mb 17f
4:48am 17 22 mph 1015.2mb 17f
4:42am 16 21 mph 1015.2mb 17f
4:36am 14 17 mph 1015.1mb 16f
4:30am 13 17 mph 1015.1mb 16f
4:24am 11 16 mph 1015.1mb 16f
4:18am 11 18 mph 1015.2mb 16f
4:12am 14 16 mph 1015.2mb 15f
4:06am 13 20 mph 1015.3mb 16f
4:00am 13 18 mph 1015.4mb 15f
3:54am 13 17 mph 1015.5mb 15f
3:48am 15 21 mph 1015.5mb 15f
3:42am 13 17 mph 1015.5mb 15f
3:36am 14 20 mph 1015.6mb 15f
3:30am 14 17 mph 1015.7mb 15f
3:24am 13 18 mph 1015.7mb 15f
3:18am 13 18 mph 1015.8mb 15f
3:12am 11 16 mph 1015.8mb 15f
3:06am 11 17 mph 1015.9mb 15f
3:00am 13 15 mph 1015.9mb 15f
2:54am 13 18 mph 1016mb 15f
2:48am 11 17 mph 1016mb 15f
2:42am 11 17 mph 1016mb 15f
2:36am 11 14 mph 1016mb 15f
2:30am 11 15 mph 1016mb 15f
2:24am 9 14 mph 1016mb 15f
2:18am 10 15 mph 1016mb 15f
2:12am 11 15 mph 1016.1mb 15f
2:06am 11 16 mph 1016.1mb 15f
2:00am 11 17 mph 1016.1mb 15f
1:54am 13 15 mph 1016.1mb 15f
1:48am 11 17 mph 1016.1mb 15f
1:42am 13 17 mph 1016.1mb 15f
1:36am 13 16 mph 1016.2mb 15f
1:30am 11 16 mph 1016.2mb 15f
1:24am 13 16 mph 1016.2mb 15f
1:18am 10 15 mph 1016.2mb 15f
1:12am 11 16 mph 1016.2mb 15f
1:06am 13 16 mph 1016.1mb 15f
1:00am 10 16 mph 1016.1mb 16f
12:54am 10 14 mph 1016.1mb 15f
12:48am 10 14 mph 1016.1mb 16f
12:42am 10 15 mph 1016.1mb 16f
12:36am 10 20 mph 1016.1mb 16f
12:30am 9 16 mph 1016.1mb 16f
12:24am 10 17 mph 1016.1mb 16f